QPF
0.00 0.00 0.00 0.00 0.00 0.00 0.00 0.00 0.00 0.00 0.00 0.00 0.00 0.00 0.00 0.00 0.00 0.00 0.00 0.00 0.00 0.00 0.00 0.00 0.00 0.00 0.00 0.00 0.01 0.04 0.00 0.00 0.00 0.00 0.02 0.02 0.00 0.00 0.00 0.01 0.00 0.01 0.02
0.00 0.00 0.00 0.00 0.00 0.00 0.00 0.00 0.00 0.00 0.00 0.00 0.00 0.00 0.00 0.00 0.00 0.00 0.00 0.00 0.00 0.00 0.00 0.00 0.00 0.00 0.00 0.00 0.00 0.01 0.00 0.00 0.00 0.00 0.01 0.04 0.01 0.00 0.00 0.01 0.00 0.00 0.01
0.00 0.00 0.00 0.00 0.00 0.00 0.00 0.00 0.00 0.00 0.00 0.00 0.00 0.00 0.00 0.00 0.00 0.00 0.00 0.00 0.00 0.00 0.00 0.00 0.00 0.00 0.00 0.00 0.02 0.03 0.00 0.00 0.00 0.00 0.01 0.01 0.02 0.00 0.00 0.00 0.00 0.00 0.01
0.00 0.00 0.00 0.00 0.00 0.00 0.00 0.00 0.00 0.00 0.00 0.00 0.00 0.00 0.00 0.00 0.00 0.00 0.00 0.00 0.00 0.00 0.00 0.00 0.00 0.00 0.00 0.00 0.01 0.01 0.00 0.00 0.00 0.00 0.00 0.00 0.01 0.01 0.00 0.00 0.00 0.00 0.00
0.00 0.00 0.00 0.00 0.00 0.00 0.00 0.00 0.00 0.00 0.00 0.00 0.00 0.00 0.00 0.00 0.00 0.01 0.02 0.01 0.03 0.06 0.04 0.01 0.02 0.01 0.00 0.00 0.02 0.04 0.00 0.00 0.00 0.00 0.00 0.00 0.00 0.01 0.01 0.01 0.01 0.01 0.01
0.00 0.00 0.00 0.00 0.00 0.00 0.00 0.00 0.00 0.00 0.00 0.00 0.00 0.00 0.00 0.00 0.01 0.03 0.05 0.04 0.08 0.11 0.11 0.05 0.04 0.02 0.00 0.00 0.00 0.00 0.00 0.00 0.00 0.00 0.00 0.00 0.00 0.02 0.01 0.01 0.01 0.01 0.00
0.00 0.00 0.00 0.00 0.00 0.00 0.00 0.00 0.00 0.00 0.00 0.00 0.00 0.00 0.00 0.01 0.06 0.01 0.01 0.00 0.04 0.05 0.05 0.04 0.00 0.01 0.00 0.00 0.00 0.00 0.00 0.00 0.00 0.00 0.00 0.01 0.01 0.00 0.00 0.00 0.00 0.00 0.00
0.00 0.00 0.00 0.00 0.00 0.00 0.00 0.00 0.00 0.00 0.00 0.00 0.00 0.00 0.00 0.03 0.10 0.07 0.02 0.00 0.00 0.02 0.10 0.10 0.00 0.01 0.00 0.00 0.00 0.00 0.00 0.00 0.00 0.00 0.00 0.01 0.00 0.00 0.00 0.00 0.00 0.00 0.00
0.00 0.00 0.00 0.00 0.00 0.00 0.00 0.00 0.00 0.00 0.00 0.00 0.00 0.01 0.06 0.12 0.10 0.08 0.00 0.00 0.00 0.03 0.12 0.14 0.11 0.19 0.01 0.00 0.00 0.00 0.00 0.00 0.00 0.00 0.00 0.00 0.00 0.00 0.00 0.00 0.00 0.00 0.00
0.00 0.00 0.00 0.00 0.00 0.00 0.00 0.00 0.00 0.00 0.00 0.00 0.00 0.01 0.05 0.08 0.07 0.03 0.02 0.02 0.07 0.05 0.06 0.11 0.22 0.18 0.19 0.04 0.03 0.01 0.00 0.00 0.00 0.00 0.00 0.00 0.00 0.00 0.00 0.00 0.00 0.00 0.00
0.00 0.00 0.00 0.00 0.00 0.00 0.00 0.00 0.00 0.00 0.00 0.00 0.00 0.00 0.07 0.10 0.07 0.05 0.05 0.04 0.04 0.05 0.04 0.06 0.08 0.19 0.26 0.21 0.18 0.09 0.01 0.00 0.00 0.00 0.00 0.00 0.00 0.00 0.00 0.00 0.00 0.00 0.00
0.00 0.00 0.00 0.00 0.00 0.00 0.00 0.00 0.01 0.01 0.01 0.01 0.01 0.01 0.02 0.04 0.03 0.02 0.01 0.01 0.02 0.03 0.06 0.09 0.15 0.17 0.20 0.22 0.23 0.17 0.05 0.01 0.00 0.00 0.00 0.00 0.00 0.00 0.00 0.00 0.00 0.00 0.00
0.00 0.00 0.00 0.00 0.00 0.00 0.00 0.00 0.00 0.00 0.01 0.01 0.01 0.01 0.02 0.04 0.03 0.02 0.02 0.00 0.01 0.01 0.04 0.09 0.06 0.09 0.10 0.16 0.22 0.17 0.08 0.01 0.00 0.00 0.00 0.00 0.00 0.00 0.00 0.00 0.00 0.00 0.01
0.00 0.00 0.00 0.00 0.00 0.00 0.00 0.00 0.00 0.00 0.01 0.00 0.01 0.00 0.01 0.01 0.01 0.01 0.02 0.00 0.00 0.03 0.05 0.06 0.03 0.04 0.04 0.09 0.10 0.05 0.05 0.00 0.00 0.00 0.00 0.00 0.00 0.00 0.00 0.01 0.01 0.01 0.01
0.00 0.00 0.00 0.00 0.00 0.00 0.00 0.00 0.00 0.00 0.00 0.00 0.00 0.01 0.01 0.00 0.01 0.01 0.00 0.00 0.01 0.02 0.07 0.10 0.06 0.05 0.02 0.02 0.03 0.01 0.01 0.00 0.00 0.00 0.00 0.00 0.01 0.01 0.00 0.01 0.02 0.01 0.01
0.00 0.00 0.00 0.00 0.00 0.00 0.00 0.00 0.00 0.00 0.00 0.00 0.00 0.00 0.01 0.01 0.04 0.04 0.02 0.01 0.03 0.01 0.05 0.06 0.04 0.03 0.03 0.02 0.01 0.01 0.01 0.00 0.00 0.00 0.00 0.00 0.01 0.00 0.01 0.01 0.02 0.01 0.01
0.00 0.00 0.00 0.00 0.00 0.00 0.00 0.00 0.00 0.00 0.00 0.00 0.00 0.00 0.00 0.00 0.02 0.05 0.04 0.02 0.01 0.01 0.03 0.09 0.08 0.11 0.11 0.06 0.01 0.00 0.01 0.00 0.00 0.00 0.00 0.00 0.00 0.01 0.01 0.01 0.01 0.01 0.01
0.00 0.00 0.00 0.00 0.00 0.00 0.00 0.00 0.00 0.00 0.00 0.00 0.00 0.00 0.00 0.00 0.00 0.01 0.02 0.01 0.00 0.00 0.01 0.06 0.17 0.17 0.23 0.12 0.03 0.00 0.00 0.00 0.00 0.00 0.00 0.00 0.00 0.00 0.00 0.01 0.01 0.01 0.01
0.00 0.00 0.00 0.00 0.00 0.00 0.00 0.00 0.00 0.00 0.00 0.00 0.00 0.00 0.00 0.00 0.00 0.00 0.01 0.01 0.01 0.02 0.04 0.15 0.21 0.29 0.21 0.13 0.04 0.00 0.00 0.00 0.00 0.00 0.00 0.00 0.00 0.00 0.00 0.00 0.00 0.00 0.00
0.00 0.00 0.00 0.00 0.00 0.00 0.00 0.00 0.00 0.00 0.00 0.00 0.00 0.00 0.00 0.00 0.00 0.00 0.01 0.01 0.03 0.12 0.12 0.20 0.30 0.30 0.25 0.13 0.04 0.01 0.01 0.00 0.00 0.00 0.00 0.00 0.00 0.00 0.00 0.00 0.00 0.00 0.00
0.00 0.00 0.00 0.00 0.00 0.00 0.00 0.00 0.00 0.00 0.00 0.00 0.00 0.00 0.00 0.00 0.00 0.01 0.01 0.03 0.10 0.12 0.09 0.09 0.20 0.30 0.21 0.12 0.05 0.03 0.01 0.00 0.00 0.00 0.00 0.00 0.00 0.00 0.00 0.00 0.00 0.00 0.00
0.00 0.00 0.00 0.00 0.00 0.00 0.00 0.00 0.00 0.00 0.00 0.00 0.00 0.00 0.00 0.00 0.01 0.01 0.01 0.04 0.11 0.14 0.14 0.07 0.09 0.17 0.12 0.03 0.03 0.03 0.01 0.01 0.01 0.01 0.00 0.00 0.00 0.00 0.00 0.00 0.00 0.00 0.00
0.00 0.00 0.00 0.00 0.00 0.00 0.00 0.00 0.00 0.00 0.00 0.00 0.00 0.00 0.00 0.01 0.00 0.01 0.01 0.03 0.09 0.09 0.06 0.14 0.13 0.11 0.08 0.03 0.02 0.01 0.00 0.01 0.01 0.01 0.00 0.00 0.00 0.00 0.00 0.00 0.00 0.00 0.00
0.00 0.00 0.00 0.00 0.00 0.00 0.00 0.00 0.00 0.00 0.00 0.00 0.00 0.00 0.00 0.00 0.01 0.00 0.01 0.02 0.07 0.08 0.06 0.11 0.20 0.19 0.11 0.09 0.03 0.04 0.00 0.00 0.00 0.00 0.00 0.00 0.00 0.00 0.00 0.00 0.00 0.00 0.00
0.00 0.00 0.00 0.00 0.00 0.00 0.00 0.00 0.00 0.00 0.00 0.00 0.00 0.00 0.00 0.01 0.01 0.01 0.00 0.01 0.06 0.04 0.02 0.06 0.15 0.18 0.16 0.11 0.07 0.04 0.00 0.00 0.00 0.00 0.00 0.00 0.00 0.00 0.00 0.00 0.00 0.00 0.00
0.00 0.00 0.00 0.00 0.00 0.00 0.00 0.00 0.00 0.00 0.00 0.00 0.00 0.00 0.00 0.01 0.01 0.01 0.01 0.04 0.04 0.03 0.01 0.02 0.07 0.11 0.14 0.10 0.06 0.04 0.01 0.00 0.00 0.00 0.00 0.00 0.00 0.00 0.00 0.00 0.00 0.00 0.00
MSLP
1007.34 1008.12 1009.62 1009.99 1010.26 1010.58 1010.83 1011.08 1011.20 1011.41 1011.73 1012.14 1012.59 1013.00 1013.29 1013.61 1013.95 1014.24 1014.32 1014.54 1014.80 1015.05 1015.26 1015.57 1015.80 1016.08 1016.18 1016.35 1016.56 1016.69 1016.96 1017.23 1017.38 1017.58 1017.80 1017.97 1018.15 1018.32 1018.36 1018.27 1018.22 1018.52 1019.10
1007.22 1008.28 1009.73 1010.08 1010.41 1010.77 1010.93 1010.96 1011.09 1011.41 1011.76 1012.16 1012.60 1013.05 1013.42 1013.82 1014.13 1014.41 1014.55 1014.77 1015.02 1015.19 1015.47 1015.71 1015.91 1016.12 1016.44 1016.61 1016.80 1016.99 1017.23 1017.55 1017.80 1018.01 1018.17 1018.52 1018.62 1018.71 1018.76 1018.65 1018.69 1019.28 1019.45
1007.68 1008.44 1009.72 1010.25 1010.57 1010.91 1011.16 1011.28 1011.31 1011.46 1011.81 1012.22 1012.67 1013.18 1013.63 1014.00 1014.25 1014.52 1014.60 1014.91 1015.23 1015.51 1015.69 1015.88 1016.09 1016.26 1016.44 1016.87 1017.18 1017.35 1017.59 1017.81 1017.98 1018.20 1018.16 1017.98 1018.77 1019.15 1019.24 1019.39 1019.59 1019.76 1019.90
1007.84 1008.56 1009.24 1010.23 1010.57 1010.87 1011.19 1011.42 1011.50 1011.62 1011.89 1012.36 1012.71 1013.16 1013.61 1014.02 1014.41 1014.69 1014.86 1014.99 1015.15 1015.48 1015.87 1016.15 1016.16 1016.52 1016.88 1016.99 1017.35 1017.69 1017.87 1018.20 1018.30 1018.13 1017.59 1018.28 1018.86 1019.66 1019.82 1019.94 1020.02 1020.12 1020.32
1007.88 1008.46 1009.14 1010.26 1010.64 1010.85 1011.10 1011.26 1011.59 1011.83 1012.05 1012.43 1012.85 1013.26 1013.63 1014.03 1014.37 1014.75 1015.12 1015.40 1015.54 1015.80 1016.13 1016.47 1016.86 1016.99 1017.11 1017.36 1017.50 1017.88 1018.18 1018.41 1018.43 1017.89 1018.01 1018.80 1018.62 1019.92 1020.25 1020.28 1020.49 1020.49 1020.40
1007.99 1008.47 1009.61 1010.36 1010.76 1011.11 1011.29 1011.46 1011.61 1011.85 1012.26 1012.54 1012.87 1013.26 1013.60 1014.11 1014.52 1014.57 1014.95 1015.08 1015.61 1015.83 1016.04 1016.08 1016.76 1017.37 1017.41 1017.48 1017.83 1017.99 1018.43 1018.53 1018.36 1017.28 1018.32 1018.96 1019.05 1020.21 1020.56 1020.79 1020.87 1020.92 1021.21
1008.20 1008.63 1009.74 1010.56 1010.85 1011.31 1011.46 1011.69 1011.91 1012.10 1012.31 1012.61 1012.92 1013.27 1013.68 1014.08 1014.54 1014.89 1015.00 1015.09 1014.97 1015.59 1015.66 1015.93 1016.43 1017.29 1017.66 1017.60 1017.90 1018.15 1018.44 1018.50 1017.60 1017.82 1018.83 1019.38 1019.85 1020.52 1020.88 1021.31 1021.31 1021.58 1021.76
1008.57 1009.06 1009.60 1010.60 1010.99 1011.32 1011.66 1011.99 1012.16 1012.25 1012.53 1012.71 1012.93 1013.23 1013.60 1013.94 1014.51 1014.91 1014.98 1015.13 1015.36 1015.78 1016.17 1016.55 1016.89 1017.48 1017.70 1017.80 1017.98 1018.30 1018.36 1018.55 1018.24 1018.46 1019.11 1019.45 1020.44 1020.83 1021.25 1021.64 1021.99 1021.97 1022.26
1008.69 1009.15 1009.43 1010.14 1010.81 1011.49 1011.73 1012.05 1012.28 1012.50 1012.68 1012.87 1012.99 1013.21 1013.45 1013.90 1014.25 1014.68 1015.11 1015.28 1015.44 1015.56 1016.19 1016.79 1017.09 1017.56 1017.92 1018.06 1018.17 1018.51 1018.60 1018.31 1018.31 1018.97 1019.31 1020.16 1020.79 1021.15 1021.56 1021.92 1022.42 1022.39 1022.55
1008.56 1009.04 1009.42 1009.74 1010.49 1011.04 1011.47 1012.11 1012.41 1012.65 1012.93 1013.04 1013.17 1013.36 1013.81 1013.77 1014.25 1014.61 1015.06 1015.33 1015.63 1015.94 1016.23 1016.60 1016.90 1017.46 1017.90 1018.35 1018.51 1018.70 1018.77 1018.82 1018.20 1019.00 1019.51 1020.38 1021.10 1021.32 1021.83 1022.22 1022.44 1022.70 1022.92
1008.21 1008.74 1009.14 1009.65 1010.39 1010.79 1011.10 1011.60 1012.35 1012.64 1012.94 1013.34 1013.38 1013.61 1013.79 1013.88 1014.02 1014.50 1014.81 1015.18 1015.51 1015.80 1016.19 1016.50 1017.19 1017.73 1018.22 1018.55 1018.84 1019.08 1019.02 1018.29 1018.56 1018.89 1019.65 1020.74 1021.23 1021.58 1022.02 1022.46 1022.59 1022.90 1023.39
1007.62 1008.23 1008.71 1009.21 1009.75 1010.38 1010.54 1010.98 1011.71 1012.01 1012.56 1012.69 1012.92 1013.07 1013.51 1013.58 1013.69 1013.82 1014.55 1015.18 1015.48 1015.90 1016.30 1016.69 1017.52 1018.10 1018.49 1018.98 1019.07 1019.41 1018.65 1018.36 1018.69 1019.17 1020.23 1020.98 1021.38 1021.76 1022.19 1022.65 1022.95 1023.30 1023.57
1007.06 1007.82 1008.34 1008.94 1009.25 1009.90 1010.11 1010.30 1011.21 1011.78 1011.80 1012.29 1012.34 1012.61 1012.95 1013.50 1013.85 1014.11 1014.24 1014.76 1015.15 1015.89 1016.02 1016.80 1017.66 1018.02 1018.43 1018.77 1019.31 1019.53 1018.71 1018.71 1018.68 1018.98 1020.54 1021.15 1021.46 1021.78 1022.29 1022.84 1023.28 1023.46 1023.84
1006.01 1006.96 1008.13 1008.78 1009.15 1009.48 1009.48 1009.80 1009.94 1011.52 1011.69 1011.96 1012.26 1012.76 1012.96 1013.26 1013.72 1013.91 1014.11 1014.01 1014.51 1014.91 1015.45 1016.22 1017.38 1017.70 1018.28 1018.57 1019.13 1019.11 1018.91 1018.35 1018.69 1019.35 1020.72 1021.28 1021.51 1021.90 1022.42 1022.95 1023.42 1023.82 1024.13
1005.24 1006.22 1007.21 1008.67 1008.79 1009.12 1009.47 1009.35 1009.70 1010.29 1011.31 1011.70 1012.09 1012.35 1012.85 1013.06 1013.49 1013.80 1014.49 1014.79 1014.55 1015.00 1015.32 1016.23 1016.81 1017.63 1018.08 1018.55 1018.95 1018.73 1018.84 1018.35 1018.75 1018.95 1020.38 1021.49 1021.70 1022.05 1022.52 1022.83 1023.51 1023.96 1024.39
1004.72 1005.42 1006.64 1007.77 1008.59 1008.60 1009.01 1009.59 1009.67 1009.93 1010.18 1011.07 1011.68 1012.10 1012.48 1012.64 1013.04 1013.29 1013.72 1014.20 1014.29 1014.66 1014.96 1015.87 1016.29 1016.91 1017.68 1018.22 1018.41 1018.52 1018.76 1018.64 1019.00 1019.06 1019.86 1021.36 1021.89 1022.27 1022.65 1022.90 1023.53 1024.06 1024.40
1004.31 1004.80 1005.64 1006.64 1007.53 1007.77 1008.19 1009.12 1009.42 1009.61 1010.17 1010.76 1011.15 1011.94 1012.11 1012.54 1012.61 1012.96 1013.41 1013.90 1013.96 1014.84 1015.14 1015.66 1016.33 1016.89 1017.54 1017.63 1017.94 1018.14 1018.63 1018.78 1019.03 1019.25 1020.01 1021.03 1021.97 1022.51 1022.77 1023.13 1023.69 1024.20 1024.40
1003.70 1004.08 1004.77 1005.70 1006.56 1007.12 1007.45 1008.18 1009.05 1009.48 1009.92 1010.61 1011.04 1011.56 1011.90 1012.18 1012.29 1012.50 1012.92 1013.43 1013.96 1014.37 1015.12 1015.75 1016.39 1016.27 1017.41 1017.44 1017.88 1018.08 1018.49 1018.66 1019.08 1019.51 1020.23 1020.95 1021.42 1021.74 1022.76 1023.26 1023.71 1024.22 1024.35
1003.13 1003.51 1003.95 1004.91 1005.83 1006.41 1007.04 1007.65 1008.72 1009.23 1009.64 1009.94 1010.39 1010.96 1011.56 1011.71 1011.85 1012.28 1012.65 1013.26 1013.77 1014.33 1015.04 1015.42 1016.07 1016.38 1016.75 1017.17 1017.67 1017.96 1018.24 1018.41 1018.97 1019.31 1019.49 1020.39 1021.20 1021.66 1022.37 1023.28 1023.84 1024.14 1024.30
1002.82 1003.14 1003.44 1003.98 1005.03 1005.82 1006.58 1007.43 1008.25 1008.74 1009.20 1009.41 1009.78 1009.96 1010.62 1011.17 1011.54 1011.82 1012.26 1012.95 1013.58 1014.37 1014.88 1015.25 1015.79 1016.12 1015.81 1017.03 1017.80 1017.80 1018.24 1018.42 1018.78 1019.44 1019.56 1020.75 1021.08 1021.71 1022.27 1023.07 1023.70 1023.82 1024.24
1002.88 1003.02 1003.16 1003.37 1004.18 1005.12 1006.10 1006.77 1007.37 1007.67 1008.55 1009.08 1009.46 1009.68 1009.98 1010.60 1010.99 1011.50 1012.13 1012.69 1013.39 1014.03 1014.41 1014.97 1015.85 1015.93 1016.26 1017.16 1017.73 1018.33 1018.60 1018.82 1019.10 1019.78 1019.77 1019.88 1020.87 1021.64 1021.92 1022.23 1022.55 1022.54 1023.84
1002.80 1002.81 1002.90 1003.06 1003.68 1004.23 1005.62 1006.28 1006.76 1007.31 1008.12 1008.68 1009.10 1009.39 1009.77 1010.15 1010.69 1011.27 1011.89 1012.44 1013.09 1013.79 1014.07 1014.80 1015.23 1015.66 1016.58 1017.13 1017.54 1018.27 1018.65 1019.59 1019.55 1019.58 1019.46 1019.86 1020.76 1021.26 1021.47 1021.74 1022.20 1022.52 1022.78
1002.48 1002.47 1002.57 1002.70 1002.98 1003.60 1004.41 1005.89 1006.39 1007.00 1007.75 1008.26 1008.59 1009.05 1009.44 1009.67 1010.36 1010.83 1011.46 1012.06 1012.64 1013.29 1013.88 1014.19 1014.63 1015.16 1015.76 1016.86 1017.02 1016.70 1017.56 1018.13 1018.96 1019.70 1019.62 1019.61 1020.78 1020.93 1021.01 1021.67 1021.87 1022.12 1022.41
1002.09 1002.02 1002.16 1002.38 1002.62 1003.22 1003.75 1004.74 1005.19 1005.38 1006.19 1006.90 1007.67 1008.45 1009.06 1009.36 1009.93 1010.32 1010.86 1011.62 1012.18 1012.61 1013.46 1013.86 1014.20 1014.74 1015.03 1015.97 1016.77 1017.04 1016.40 1016.90 1017.42 1018.89 1019.63 1019.52 1020.15 1020.82 1020.80 1020.85 1021.34 1021.80 1022.14
1001.70 1001.91 1001.99 1002.24 1002.48 1003.22 1003.26 1004.13 1004.72 1004.66 1005.16 1005.80 1006.58 1007.39 1008.62 1009.03 1009.51 1009.82 1010.57 1011.25 1011.84 1012.37 1012.96 1013.52 1014.08 1014.60 1014.85 1015.41 1015.92 1016.73 1016.27 1016.90 1017.01 1017.38 1018.33 1018.90 1019.49 1019.85 1020.33 1020.88 1020.90 1021.26 1021.63
1001.36 1001.47 1001.75 1002.01 1002.23 1003.20 1003.55 1003.77 1004.04 1003.88 1004.23 1005.20 1006.27 1007.14 1008.06 1008.63 1008.99 1009.51 1010.15 1010.80 1011.44 1011.93 1012.41 1012.91 1013.58 1014.00 1014.68 1015.39 1015.88 1016.23 1016.22 1016.34 1016.76 1017.04 1017.33 1018.39 1018.62 1019.19 1019.68 1019.86 1020.39 1020.49 1020.84
Thickness
5775 5771 5759 5756 5753 5748 5744 5740 5736 5733 5731 5726 5722 5718 5715 5712 5708 5705 5704 5701 5699 5697 5696 5694 5693 5692 5693 5694 5694 5695 5695 5693 5693 5692 5691 5691 5690 5690 5691 5692 5692 5690 5688
5776 5766 5754 5751 5747 5743 5740 5739 5736 5730 5726 5722 5718 5714 5710 5707 5704 5701 5698 5695 5693 5691 5689 5688 5688 5687 5686 5686 5688 5689 5689 5688 5687 5686 5685 5683 5683 5684 5684 5686 5686 5683 5683
5768 5761 5750 5745 5742 5739 5736 5734 5731 5728 5724 5718 5714 5709 5705 5702 5699 5697 5696 5693 5689 5685 5683 5682 5682 5682 5682 5681 5680 5681 5681 5682 5683 5682 5682 5683 5679 5678 5678 5678 5678 5678 5678
5763 5756 5750 5742 5739 5736 5733 5729 5727 5724 5720 5714 5710 5706 5702 5698 5695 5692 5690 5689 5687 5683 5679 5676 5676 5675 5674 5675 5675 5674 5675 5675 5676 5679 5684 5679 5675 5671 5670 5671 5672 5673 5672
5759 5753 5747 5739 5735 5733 5729 5727 5723 5718 5716 5711 5707 5702 5698 5695 5691 5687 5684 5681 5680 5678 5674 5670 5665 5666 5668 5669 5670 5669 5669 5670 5671 5677 5676 5672 5675 5666 5664 5666 5666 5667 5669
5755 5750 5742 5736 5731 5727 5725 5721 5719 5716 5711 5707 5703 5699 5695 5689 5685 5685 5682 5680 5676 5674 5673 5671 5666 5660 5662 5664 5664 5665 5664 5665 5668 5675 5670 5668 5669 5661 5659 5659 5660 5662 5660
5750 5746 5736 5731 5728 5722 5720 5716 5713 5710 5708 5704 5700 5695 5690 5686 5680 5678 5678 5677 5678 5673 5672 5670 5667 5659 5656 5660 5660 5660 5660 5661 5668 5667 5663 5662 5661 5656 5655 5653 5654 5654 5654
5744 5739 5734 5727 5723 5718 5714 5710 5708 5707 5703 5700 5697 5693 5687 5683 5677 5674 5674 5671 5670 5667 5663 5660 5658 5654 5654 5654 5655 5654 5655 5657 5659 5658 5656 5657 5653 5651 5649 5647 5646 5648 5648
5740 5736 5732 5725 5720 5714 5710 5706 5703 5701 5698 5695 5693 5689 5684 5678 5675 5672 5668 5667 5665 5664 5657 5654 5652 5648 5648 5649 5650 5650 5650 5653 5654 5651 5651 5648 5647 5646 5644 5642 5640 5642 5643
5737 5732 5728 5723 5717 5712 5708 5701 5698 5695 5692 5691 5688 5685 5678 5675 5671 5668 5664 5662 5659 5657 5654 5653 5650 5647 5645 5643 5643 5644 5644 5646 5650 5645 5646 5643 5640 5641 5640 5637 5637 5638 5637
5733 5730 5726 5719 5711 5709 5707 5702 5696 5691 5688 5684 5682 5679 5673 5669 5666 5663 5661 5658 5655 5653 5651 5650 5645 5641 5638 5637 5636 5635 5635 5642 5642 5641 5641 5637 5635 5636 5635 5633 5634 5633 5628
5729 5727 5725 5719 5712 5706 5706 5702 5695 5692 5685 5683 5679 5676 5670 5667 5664 5662 5657 5654 5652 5648 5645 5643 5637 5633 5631 5628 5627 5628 5632 5636 5636 5635 5633 5631 5630 5631 5630 5628 5627 5625 5623
5730 5725 5722 5717 5713 5706 5704 5702 5695 5689 5687 5682 5679 5675 5670 5664 5659 5655 5653 5649 5647 5642 5640 5636 5630 5627 5624 5623 5619 5621 5626 5628 5632 5633 5625 5625 5626 5626 5625 5621 5619 5621 5620
5733 5727 5719 5713 5709 5704 5704 5702 5700 5687 5683 5680 5676 5671 5666 5661 5656 5653 5650 5650 5646 5642 5637 5633 5625 5621 5618 5618 5615 5618 5619 5625 5627 5626 5620 5620 5621 5621 5619 5615 5611 5612 5613
5732 5726 5720 5709 5707 5704 5700 5702 5697 5692 5682 5677 5672 5668 5663 5659 5655 5650 5645 5641 5642 5637 5632 5628 5621 5616 5614 5613 5612 5615 5615 5621 5621 5624 5618 5615 5616 5616 5614 5611 5606 5607 5606
5730 5726 5719 5710 5703 5703 5699 5693 5692 5688 5685 5677 5669 5664 5659 5657 5653 5649 5645 5641 5638 5635 5631 5624 5619 5615 5611 5611 5612 5611 5611 5615 5616 5619 5617 5609 5610 5609 5608 5608 5604 5603 5602
5726 5724 5721 5714 5707 5705 5701 5693 5690 5686 5680 5674 5669 5660 5657 5653 5650 5646 5643 5638 5636 5628 5624 5618 5613 5609 5609 5611 5611 5611 5609 5610 5611 5614 5612 5607 5604 5603 5602 5603 5600 5598 5599
5724 5723 5722 5717 5709 5705 5701 5696 5687 5682 5677 5670 5665 5658 5653 5650 5648 5645 5641 5636 5631 5624 5618 5612 5607 5609 5604 5608 5607 5608 5607 5607 5607 5607 5606 5604 5603 5602 5598 5597 5596 5594 5596
5721 5721 5721 5716 5708 5703 5698 5694 5683 5679 5675 5670 5665 5658 5652 5649 5646 5642 5639 5632 5627 5619 5613 5608 5603 5605 5605 5604 5604 5606 5605 5606 5604 5605 5607 5602 5598 5597 5594 5591 5590 5591 5592
5716 5717 5718 5716 5708 5700 5695 5689 5681 5676 5672 5668 5664 5661 5654 5648 5644 5641 5636 5629 5622 5613 5608 5605 5600 5599 5606 5599 5597 5602 5601 5602 5601 5600 5601 5594 5594 5591 5590 5587 5586 5588 5587
5705 5707 5709 5711 5707 5698 5689 5684 5680 5676 5670 5665 5661 5657 5653 5647 5642 5637 5631 5625 5618 5612 5608 5602 5596 5597 5597 5593 5593 5591 5592 5594 5595 5593 5595 5596 5590 5585 5587 5589 5590 5592 5585
5694 5698 5701 5704 5701 5699 5686 5681 5678 5674 5667 5662 5658 5655 5650 5645 5639 5634 5627 5620 5614 5607 5605 5601 5597 5595 5591 5590 5589 5584 5580 5579 5586 5591 5595 5594 5588 5584 5586 5587 5587 5587 5588
5688 5691 5694 5696 5697 5695 5690 5677 5674 5670 5663 5658 5655 5651 5647 5644 5636 5631 5624 5618 5612 5607 5603 5601 5598 5594 5592 5587 5589 5594 5584 5583 5585 5584 5589 5592 5583 5584 5585 5583 5584 5584 5584
5683 5689 5689 5691 5692 5689 5686 5677 5676 5674 5665 5662 5656 5650 5644 5641 5635 5629 5623 5617 5610 5607 5600 5598 5596 5591 5591 5588 5585 5585 5596 5595 5591 5580 5580 5585 5583 5578 5581 5583 5581 5579 5579
5678 5679 5681 5682 5684 5679 5681 5674 5672 5672 5670 5665 5659 5651 5641 5637 5632 5628 5619 5613 5608 5603 5600 5596 5591 5587 5587 5587 5587 5582 5591 5589 5592 5588 5579 5580 5580 5581 5578 5576 5578 5577 5576
5673 5674 5675 5674 5675 5670 5669 5669 5670 5671 5669 5661 5653 5645 5638 5634 5630 5624 5616 5610 5604 5601 5599 5596 5591 5588 5583 5581 5581 5583 5586 5586 5586 5585 5585 5577 5578 5578 5577 5578 5578 5578 5575